Tracking 26198 objects as of 1-Oct-2022
HD Live streaming from Space Station
objects crossing your sky now

FLOCK 4X 32

Track FLOCK 4X 32 now!
10-day predictions


NORAD ID: 51024
Int'l Code: 2022-002AS
Perigee: 513.1 km
Apogee: 532.9 km
Inclination: 97.5 °
Period: 94.9 minutes
Semi major axis: 6894 km
RCS: Unknown
Launch date: January 13, 2022
Source: United States (US)
Launch site: AIR FORCE EASTERN TEST RANGE (AFETR)
aabbcc
Your satellite tracking list
Your tracking list is empty




NASA's NSSDC Master Catalog

Two Line Element Set (TLE):
1 51024U 22002AS  22273.17328502  .00007567  00000-0  38874-3 0  9990
2 51024  97.4788 338.9954 0014329  68.5277 291.7482 15.16685292 39293
Source of the keplerian elements: AFSPC